GEFSMA_con_cape1000_108.txt.gz
Probability
29 29 19 13 10 3 3 6 10 10 6 10 13 6 3 3 6 29 48 84 90 87 90 90 90 87 90 90 84 81 81 81 84 87 81 74 71 58 48 35 29 19 23
29 26 13 13 6 6 6 10 10 6 3 0 6 6 3 3 6 23 29 77 81 90 90 90 90 90 84 81 81 81 84 81 81 84 84 77 74 61 55 39 29 29 26
16 16 10 10 10 6 6 3 6 3 0 0 3 3 0 0 6 16 29 48 65 87 90 94 94 94 90 87 77 77 84 84 84 84 87 81 68 58 65 58 42 35 19
16 13 13 13 10 6 3 0 0 0 0 0 0 0 0 3 6 6 19 26 35 55 77 94 94 94 90 90 84 87 87 87 90 84 84 87 84 68 42 48 48 45 29
16 10 6 6 0 0 0 0 0 0 0 0 0 0 0 0 3 6 13 13 19 29 39 58 94 90 87 84 81 81 87 94 87 84 87 90 84 68 61 52 48 29 19
16 10 6 6 3 0 0 0 0 0 0 0 0 0 0 0 0 0 6 13 13 16 23 26 48 65 84 84 84 81 81 84 94 94 90 94 94 87 68 58 45 39 32
13 6 6 3 3 0 0 0 0 0 0 0 0 0 0 0 0 0 0 0 3 3 6 16 19 16 23 81 87 87 90 84 90 90 94 94 90 90 71 68 48 48 39
13 10 3 3 0 0 0 0 0 0 0 0 0 0 0 0 0 0 0 0 0 0 0 6 6 6 0 10 13 71 94 90 81 87 90 94 90 84 68 65 39 29 29
13 6 3 3 0 0 0 0 0 0 0 0 0 0 0 0 0 0 0 0 0 0 3 3 0 0 0 0 3 3 81 87 84 74 90 87 74 71 65 55 55 42 26
10 6 3 0 0 0 0 0 0 0 0 0 0 0 0 0 0 0 0 0 0 0 0 3 3 0 0 0 0 0 19 65 77 81 81 84 84 74 45 45 52 48 35
6 6 0 0 0 0 0 0 0 0 0 0 0 0 0 0 0 0 0 0 0 0 0 0 0 0 0 0 0 0 0 26 48 68 74 71 71 71 65 42 48 61 61
0 3 0 0 0 0 0 0 0 0 0 0 0 0 0 0 0 0 0 0 0 0 0 0 0 0 0 0 3 10 10 3 0 3 16 42 45 55 61 55 58 55 55
0 3 3 0 0 0 0 0 0 0 0 0 0 0 0 0 0 0 0 0 0 0 0 0 0 0 0 0 0 10 10 3 0 0 0 0 6 10 26 39 42 45 45
0 0 0 0 0 0 0 0 0 0 0 0 0 0 0 0 0 0 0 0 0 0 0 0 0 0 0 0 0 0 3 3 0 0 0 0 0 0 0 0 3 10 13
0 0 0 0 0 0 0 0 0 0 0 0 0 0 0 0 0 0 0 0 0 0 0 0 0 0 0 0 0 0 0 0 0 0 0 0 0 0 0 0 0 0 0
0 0 0 0 0 0 0 0 0 0 0 0 0 0 0 0 0 0 0 0 0 0 0 0 0 0 0 0 0 0 0 0 0 0 0 0 0 0 0 0 0 0 0
0 0 0 0 0 0 0 0 0 0 0 0 0 0 0 0 0 0 0 0 0 0 0 0 0 0 0 0 0 0 0 0 0 0 0 0 0 0 0 0 0 0 0
0 0 0 0 0 0 0 0 0 0 0 0 0 0 0 0 0 0 0 0 0 0 0 0 0 0 0 0 0 0 0 0 0 0 0 0 0 0 0 0 0 0 0
0 0 0 0 0 0 0 0 0 0 0 0 0 0 0 0 0 0 0 0 0 0 0 0 0 0 0 0 0 0 0 0 0 0 0 0 0 0 0 0 0 0 0
0 0 0 0 0 0 0 0 0 0 0 0 0 0 0 0 0 0 0 0 0 0 0 0 0 0 0 0 0 0 0 0 0 0 0 0 0 0 0 0 0 0 0
0 0 0 0 0 0 0 0 0 0 0 0 0 0 0 0 0 0 0 0 0 0 0 0 0 0 0 0 0 0 0 0 0 0 0 0 0 0 0 0 0 0 0
0 0 0 0 0 0 0 0 0 0 0 0 0 0 0 0 0 0 0 0 0 0 0 0 0 0 0 0 0 0 0 0 0 0 0 0 0 0 0 0 0 0 0
0 0 0 0 0 0 0 0 0 0 0 0 0 0 0 0 0 0 0 0 0 0 0 0 0 0 0 0 0 0 0 0 0 0 0 0 0 0 0 0 0 0 0
0 0 0 0 0 0 0 0 0 0 0 0 0 0 0 0 0 0 0 0 0 0 0 0 0 0 0 0 0 0 0 0 0 0 0 0 0 0 0 0 0 0 0
0 0 0 0 0 0 0 0 0 0 0 0 0 0 0 0 0 0 0 0 0 0 0 0 0 0 0 0 0 0 0 0 0 0 0 0 0 0 0 0 0 0 0
0 0 0 0 0 0 0 0 0 0 0 0 0 0 0 0 0 0 0 0 0 0 0 0 0 0 0 0 0 0 0 0 0 0 0 0 0 0 0 0 0 0 0

GEFSMA_con_cape1000_114.txt.gz
Probability
23 26 26 16 10 6 3 3 3 3 6 6 10 10 10 19 26 23 48 84 90 94 90 87 74 77 74 71 77 71 68 71 74 87 84 77 65 55 39 26 23 26 29
16 19 19 6 3 6 3 6 3 0 0 10 16 16 13 19 23 32 42 68 84 90 90 84 81 65 74 71 71 71 71 77 81 87 81 81 81 65 42 29 26 23 23
19 16 16 3 3 3 3 3 6 3 3 0 10 13 16 13 19 32 39 61 77 81 90 87 87 87 84 68 65 71 74 81 84 87 84 74 74 71 61 45 29 29 23
16 13 10 3 3 3 3 0 0 0 0 0 3 3 10 13 13 26 32 35 52 58 71 87 87 90 84 81 65 74 74 81 87 84 87 81 65 61 55 58 45 35 23
10 6 3 0 0 3 0 3 0 0 0 0 0 0 0 6 13 13 23 29 29 39 52 55 77 87 87 71 81 74 81 77 81 74 71 71 68 71 48 45 45 32 19
10 6 3 3 0 3 0 0 0 0 0 0 0 0 0 3 6 6 6 16 16 19 19 26 39 52 71 77 71 68 71 71 68 68 68 68 74 81 58 32 26 23 16
10 10 10 3 0 0 0 0 0 0 0 0 0 0 0 0 0 0 0 6 13 13 19 19 23 26 29 39 65 77 68 58 68 77 74 74 74 84 68 55 32 19 16
10 10 6 6 3 0 0 0 0 0 0 0 0 0 0 0 0 0 0 6 6 10 19 16 19 23 19 26 16 29 77 68 58 71 74 74 74 74 65 58 29 10 10
10 10 3 3 0 0 0 0 0 0 0 0 0 0 0 0 0 0 0 0 0 10 10 16 13 10 10 16 13 3 35 52 68 55 74 77 68 42 32 42 35 26 16
10 6 3 3 0 0 0 0 0 0 0 0 0 0 0 0 0 0 0 0 0 0 0 0 3 6 6 6 3 0 3 16 52 58 68 77 71 45 26 29 42 45 35
6 6 3 3 0 0 0 0 0 0 0 0 0 0 0 0 0 0 0 0 0 0 0 0 0 3 3 3 6 3 0 0 13 29 48 55 55 58 42 42 48 45 52
3 3 3 3 0 0 0 0 0 0 0 0 0 0 0 0 0 0 0 0 0 0 0 0 0 0 0 0 0 3 3 0 0 0 3 10 26 39 42 42 39 35 35
0 3 3 0 0 0 0 0 0 0 0 0 0 0 0 0 0 0 0 0 0 0 0 0 0 0 0 0 0 0 3 0 0 0 0 0 3 6 16 26 26 26 19
0 0 0 0 0 0 0 0 0 0 0 0 0 0 0 0 0 0 0 0 0 0 0 0 0 0 0 0 0 0 0 0 0 0 0 0 0 0 0 0 0 0 3
0 0 0 0 0 0 0 0 0 0 0 0 0 0 0 0 0 0 0 0 0 0 0 0 0 0 0 0 0 0 0 0 0 0 0 0 0 0 0 0 0 0 0
0 0 0 0 0 0 0 0 0 0 0 0 0 0 0 0 0 0 0 0 0 0 0 0 0 0 0 0 0 0 0 0 0 0 0 0 0 0 0 0 0 0 0
0 0 0 0 0 0 0 0 0 0 0 0 0 0 0 0 0 0 0 0 0 0 0 0 0 0 0 0 0 0 0 0 0 0 0 0 0 0 0 0 0 0 0
0 0 0 0 0 0 0 0 0 0 0 0 0 0 0 0 0 0 0 0 0 0 0 0 0 0 0 0 0 0 0 0 0 0 0 0 0 0 0 0 0 0 0
0 0 0 0 0 0 0 0 0 0 0 0 0 0 0 0 0 0 0 0 0 0 0 0 0 0 0 0 0 0 0 0 0 0 0 0 0 0 0 0 0 0 0
0 0 0 0 0 0 0 0 0 0 0 0 0 0 0 0 0 0 0 0 0 0 0 0 0 0 0 0 0 0 0 0 0 0 0 0 0 0 0 0 0 0 0
0 0 0 0 0 0 0 0 0 0 0 0 0 0 0 0 0 0 0 0 0 0 0 0 0 0 0 0 0 0 0 0 0 0 0 0 0 0 0 0 0 0 0
0 0 0 0 0 0 0 0 0 0 0 0 0 0 0 0 0 0 0 0 0 0 0 0 0 0 0 0 0 0 0 0 0 0 0 0 0 0 0 0 0 0 0
0 0 0 0 0 0 0 0 0 0 0 0 0 0 0 0 0 0 0 0 0 0 0 0 0 0 0 0 0 0 0 0 0 0 0 0 0 0 0 0 0 0 0
0 0 0 0 0 0 0 0 0 0 0 0 0 0 0 0 0 0 0 0 0 0 0 0 0 0 0 0 0 0 0 0 0 0 0 0 0 0 0 0 0 0 0
0 0 0 0 0 0 0 0 0 0 0 0 0 0 0 0 0 0 0 0 0 0 0 0 0 0 0 0 0 0 0 0 0 0 0 0 0 0 0 0 0 0 0
3 0 0 0 0 0 0 0 0 0 0 0 0 0 0 0 0 0 0 0 0 0 0 0 0 0 0 0 0 0 0 0 0 0 0 0 0 0 0 0 0 0 0

GEFSMA_con_cape1000_120.txt.gz
Probability
84 81 87 81 65 61 71 77 58 68 68 61 29 32 35 39 39 39 68 77 74 84 65 68 68 61 68 71 71 71 74 65 68 71 55 58 65 42 35 26 26 23 23
84 84 87 90 77 68 58 55 58 68 65 55 48 52 39 35 42 45 55 81 77 74 71 61 58 71 74 77 68 68 71 68 71 65 61 71 61 55 32 23 19 13 16
84 87 81 87 74 68 74 68 61 55 55 52 45 39 45 48 52 52 45 55 71 81 74 74 74 68 68 65 68 68 71 71 77 74 68 68 65 58 45 35 23 26 16
84 87 74 68 87 68 71 71 61 39 45 39 45 35 45 58 39 45 45 52 48 42 74 74 81 77 71 65 68 71 71 77 81 74 71 68 68 65 58 48 39 29 29
77 84 81 81 84 65 65 55 61 48 39 35 39 48 42 48 55 32 32 29 45 52 55 81 81 81 68 58 58 68 71 77 84 77 65 68 55 58 58 45 45 35 23
81 81 77 84 68 65 74 68 68 71 61 48 10 16 26 32 29 45 32 32 52 42 39 32 61 58 71 68 74 71 65 71 71 74 68 68 61 61 58 58 48 45 35
81 87 71 81 81 68 58 52 48 39 35 35 19 16 19 16 23 35 32 35 26 32 39 42 39 55 58 55 52 71 74 71 68 68 68 71 65 68 68 61 48 42 39
84 74 81 77 81 81 68 58 61 35 32 26 19 23 19 19 35 13 35 29 26 42 32 32 48 65 65 68 35 61 68 68 52 58 61 61 61 65 65 58 55 39 23
74 77 71 74 84 58 58 71 58 48 26 26 19 16 13 6 16 3 16 19 42 48 35 29 32 39 42 55 58 35 58 58 55 45 58 61 68 55 48 58 55 39 32
68 71 65 71 71 45 55 45 32 35 39 29 16 19 26 6 10 6 16 6 29 32 26 13 13 23 32 45 42 10 29 32 42 42 58 61 74 61 29 39 52 52 42
61 52 58 65 58 52 45 42 39 39 32 26 16 16 19 23 10 10 6 10 19 23 29 26 23 23 39 45 52 23 13 10 19 26 39 48 55 61 45 42 23 35 39
48 42 42 58 58 39 45 45 45 39 35 29 23 19 19 16 10 10 13 19 26 10 19 23 16 13 19 16 16 13 10 3 0 0 6 16 26 42 35 32 19 16 19
42 52 29 58 45 48 52 39 45 42 32 35 42 23 19 19 13 10 6 10 13 13 10 10 10 13 10 13 26 3 3 0 0 0 0 0 0 6 10 23 26 19 16
35 45 45 48 42 42 23 48 32 35 35 29 10 26 29 16 13 10 6 6 13 13 10 3 6 10 13 23 10 0 10 0 0 0 0 0 0 0 0 0 3 0 0
35 42 32 29 29 35 39 42 29 32 32 23 6 26 19 13 3 6 6 6 3 10 13 16 6 16 13 32 0 23 23 0 0 0 0 0 0 0 0 0 0 0 0
32 29 32 29 26 32 35 32 26 26 23 26 23 19 13 3 13 6 6 13 10 3 6 13 10 10 10 0 0 32 13 0 0 0 0 0 0 0 0 0 0 0 0
23 26 26 23 23 26 23 26 10 16 16 16 13 6 13 6 10 6 6 3 13 3 3 10 6 13 23 6 3 6 10 10 0 0 0 0 0 0 0 0 0 0 0
26 26 26 19 16 19 19 16 13 3 6 6 6 0 0 0 13 10 10 6 6 10 3 10 6 6 6 6 3 19 0 0 0 0 0 0 0 0 0 0 0 0 0
23 23 26 23 16 19 19 13 6 6 3 0 0 0 0 3 3 6 3 10 6 0 6 6 3 10 6 0 6 0 0 3 0 0 0 0 0 0 0 0 0 0 0
23 19 23 23 13 10 10 10 6 6 3 0 0 0 0 0 0 3 3 6 3 0 3 10 6 10 10 3 10 10 6 3 6 0 0 0 0 0 0 0 0 0 0
13 19 16 10 10 6 6 10 10 3 6 3 0 0 0 0 0 0 0 6 3 10 6 0 3 3 6 3 6 6 6 3 3 3 3 6 3 0 0 0 0 0 0
16 16 16 10 10 6 3 0 3 3 6 6 3 0 0 0 0 0 0 0 0 0 0 0 0 0 0 0 0 0 0 0 0 0 0 0 0 0 0 0 0 0 0
16 16 6 6 6 3 0 0 0 3 10 10 6 3 0 0 0 0 0 0 0 0 0 0 0 0 0 0 0 0 0 0 0 0 0 0 0 0 0 0 0 0 0
16 6 3 3 6 3 0 0 0 0 6 6 6 6 0 0 0 0 0 0 0 0 0 0 0 0 0 0 0 0 0 0 0 0 0 0 0 0 0 0 0 0 0
6 6 3 6 6 3 0 0 0 0 3 0 3 3 0 0 0 0 0 0 0 0 0 0 0 0 0 0 0 0 0 0 0 0 0 0 0 0 0 0 0 0 0
6 3 3 3 3 3 0 0 0 0 0 0 0 0 0 0 0 0 0 0 0 0 0 0 0 0 0 0 0 0 0 0 0 0 0 0 0 0 0 0 0 0 0

GEFSMA_con_cape1000_126.txt.gz
Probability
100 97 100 100 94 97 97 100 97 84 87 94 71 58 55 58 48 35 55 84 90 87 81 68 52 55 68 65 74 74 61 58 77 65 55 52 39 35 29 26 32 29 23
100 100 100 100 97 97 97 100 90 90 100 100 94 77 68 52 71 48 39 77 81 84 81 65 65 58 58 74 71 71 71 65 74 74 68 61 61 48 32 26 23 23 26
100 94 100 97 97 94 90 94 97 90 94 87 94 87 84 77 68 71 48 52 65 77 84 77 71 71 68 61 61 65 77 68 71 71 68 74 61 58 48 39 29 32 26
90 94 100 97 94 90 97 94 94 94 94 87 90 87 90 97 84 81 77 68 55 35 71 81 81 84 77 65 68 68 81 74 71 71 71 65 58 58 52 48 35 35 35
90 90 94 94 90 90 87 74 87 90 84 84 84 90 87 97 87 77 81 74 68 65 48 68 87 87 81 61 71 77 81 84 74 74 68 68 58 65 55 52 45 45 35
90 90 87 87 87 90 90 94 90 97 94 90 55 61 77 90 84 87 77 77 74 65 58 39 68 74 90 84 84 77 71 77 77 74 71 74 71 74 58 58 45 39 35
90 90 94 94 90 90 90 87 84 90 81 84 81 74 74 71 71 81 77 77 58 77 74 68 55 52 45 87 90 94 84 77 81 81 81 81 77 81 68 65 52 48 42
87 71 94 94 94 90 87 87 84 87 74 68 74 65 52 45 68 35 77 84 65 68 77 68 77 77 61 48 19 84 84 87 84 77 81 84 81 77 71 65 55 42 45
87 94 94 94 90 90 90 87 90 68 71 74 71 65 39 19 39 58 58 52 74 71 68 68 71 74 65 58 42 26 81 77 87 81 81 81 74 61 55 58 55 52 45
87 87 81 84 90 94 97 77 77 77 61 61 71 68 58 48 32 29 39 48 52 71 65 39 42 68 68 68 65 35 65 71 77 74 77 74 68 61 55 52 52 52 45
77 81 81 87 84 84 90 81 84 71 74 77 74 55 52 52 29 26 16 32 42 61 71 61 61 58 65 61 58 32 45 52 61 61 68 68 65 61 58 52 35 42 48
71 74 74 81 81 81 74 71 68 55 55 68 68 61 45 48 32 26 16 26 32 52 58 71 71 71 65 48 39 42 32 29 16 16 42 48 55 52 52 52 42 35 32
58 65 65 77 77 71 71 68 65 55 65 48 48 65 48 48 52 42 29 26 26 48 48 58 52 45 35 32 23 19 23 3 0 0 0 0 3 19 35 35 29 29 35
58 61 71 77 74 68 48 68 58 45 52 45 19 45 68 48 42 45 39 39 16 13 39 29 48 39 19 32 13 0 0 0 0 0 0 0 0 0 0 3 6 10 16
52 65 68 68 65 55 58 61 48 48 55 39 32 42 39 32 32 29 45 42 23 0 3 26 19 29 26 26 0 6 10 0 0 0 0 0 0 0 0 0 0 0 0
48 55 52 48 52 55 45 52 35 39 42 35 48 42 42 32 23 32 35 32 35 26 6 16 26 29 16 0 0 13 13 0 0 0 0 0 0 0 0 0 0 0 0
42 48 42 39 35 32 35 39 32 39 26 29 29 29 29 32 39 39 39 32 32 19 6 19 23 23 13 6 3 10 3 3 0 0 0 0 0 0 0 0 0 0 0
39 39 32 29 26 26 29 32 29 26 19 13 13 16 16 10 26 23 29 19 16 19 3 3 10 13 13 13 6 3 0 0 3 0 0 0 0 0 0 0 0 0 0
35 32 26 26 29 29 26 23 16 26 10 10 10 10 13 6 6 19 19 10 10 3 10 3 6 10 10 10 0 0 0 3 0 0 0 0 0 0 0 0 0 0 0
29 26 26 23 19 19 23 19 19 16 13 13 6 3 3 6 3 3 3 0 10 6 10 3 3 3 3 3 0 0 0 0 0 0 0 0 0 0 0 0 0 0 0
16 23 23 19 19 16 16 19 16 6 10 6 3 3 3 3 3 3 0 3 0 6 3 3 3 3 0 0 0 0 0 0 0 0 0 0 0 0 0 0 0 0 0
23 19 23 23 23 13 3 6 10 13 16 3 3 3 3 3 0 0 0 0 0 3 3 3 3 0 0 0 0 0 0 0 0 0 0 0 0 0 0 0 0 0 0
19 16 19 19 10 6 3 0 0 6 10 6 3 3 3 3 0 0 0 0 0 0 0 0 0 3 3 3 0 0 0 0 0 0 0 0 0 0 0 0 0 0 0
19 19 23 16 10 3 3 0 0 0 3 6 6 6 3 3 3 0 0 0 0 0 0 0 0 0 0 0 0 0 0 0 0 0 0 0 0 0 0 0 0 0 0
23 19 16 6 10 3 3 0 0 0 0 0 3 3 3 3 3 0 0 0 0 0 0 0 0 0 0 0 0 0 0 0 0 0 0 0 0 0 0 0 0 0 0
19 13 10 3 0 0 3 0 0 0 0 6 3 0 0 0 0 0 0 0 0 0 0 0 0 0 0 0 0 0 0 0 0 0 0 0 0 0 0 0 0 0 0

GEFSMA_con_cape1000_132.txt.gz
Probability
29 29 32 26 16 16 13 6 6 3 0 3 3 3 0 0 0 6 35 81 84 94 90 87 81 77 77 81 77 77 71 68 74 71 65 58 45 45 45 42 39 32 39
29 26 29 19 16 16 10 10 3 3 0 3 3 0 0 0 0 3 16 65 81 90 87 90 87 81 71 71 81 84 81 61 71 81 81 71 55 52 32 35 29 26 29
39 29 26 23 13 13 10 6 10 3 0 3 3 3 3 0 0 6 6 23 61 84 87 87 87 84 77 77 81 77 81 81 84 84 81 74 58 58 55 45 29 29 26
32 19 23 13 10 13 6 3 6 3 3 3 3 0 0 0 0 3 3 10 10 45 77 87 87 84 87 77 77 74 81 81 87 81 71 68 65 52 52 42 39 29 23
32 19 19 13 10 10 10 10 6 3 0 0 0 0 3 3 0 0 0 0 0 10 19 61 94 90 81 81 81 77 81 87 81 77 61 65 58 52 45 42 42 32 23
29 13 16 19 10 6 6 3 3 3 3 3 6 0 0 3 3 0 0 3 3 6 6 10 48 71 84 90 90 90 81 81 77 74 71 65 58 61 58 39 35 35 26
32 16 19 10 3 3 3 3 3 3 3 3 3 0 0 3 3 3 0 0 3 6 0 6 6 10 16 81 87 94 84 81 87 87 84 81 74 81 61 48 35 26 23
23 19 13 6 3 3 3 3 3 3 0 0 0 0 0 0 0 0 0 0 0 0 0 0 0 3 0 3 16 74 87 84 84 87 90 90 81 74 61 48 26 19 19
16 13 13 6 3 3 3 0 3 3 0 0 0 0 0 0 0 0 0 0 0 0 0 0 0 3 3 0 0 10 87 84 87 84 81 87 81 58 45 39 39 19 10
16 13 10 10 6 3 0 0 3 3 0 0 0 0 0 0 0 0 0 0 0 3 0 0 0 3 0 0 0 3 19 48 68 68 68 77 71 58 35 45 35 32 19
13 16 13 6 3 3 0 0 0 0 0 0 0 0 0 0 0 0 0 0 0 0 0 0 0 0 3 3 0 0 13 23 29 52 61 58 55 48 39 39 23 23 26
6 6 13 3 3 3 3 0 0 0 0 0 0 0 0 0 0 0 0 0 0 0 0 0 0 0 0 6 6 10 16 10 6 10 19 23 29 32 39 35 29 19 19
6 6 6 3 3 3 3 0 0 0 0 0 0 0 0 0 0 0 0 0 0 0 0 0 0 0 0 0 3 10 16 6 0 0 0 0 6 13 16 23 23 16 16
3 3 3 0 6 6 6 3 0 0 0 0 0 0 0 0 0 0 0 0 0 0 0 0 0 0 0 0 3 3 6 3 0 0 0 0 0 0 0 0 0 0 0
0 0 6 6 3 3 3 3 3 6 0 0 0 0 0 0 0 0 0 0 0 0 0 0 0 0 0 0 0 0 0 0 0 0 0 0 0 0 0 0 0 0 0
0 3 3 6 3 3 3 3 3 0 0 0 0 0 0 0 0 0 0 0 0 0 0 0 0 0 0 0 0 0 0 0 0 0 0 0 0 0 0 0 0 0 0
3 3 3 3 3 3 3 3 0 0 0 0 0 0 0 0 0 0 0 0 0 0 0 0 0 0 0 0 0 0 0 0 0 0 0 0 0 0 0 0 0 0 0
3 3 3 3 3 3 3 3 0 0 0 0 0 0 0 0 0 0 0 0 0 0 0 0 0 0 0 0 0 0 0 0 0 0 0 0 0 0 0 0 0 0 0
6 6 6 3 3 3 3 0 0 0 0 0 0 0 0 0 0 0 0 0 0 0 0 0 0 0 0 0 0 0 0 0 0 0 0 0 0 0 0 0 0 0 0
6 6 6 6 6 3 3 3 0 0 0 0 0 0 0 0 0 0 0 0 0 0 0 0 0 0 0 0 0 0 0 0 0 0 0 0 0 0 0 0 0 0 0
6 6 6 6 3 3 3 3 3 0 0 0 0 0 0 0 0 0 0 0 0 0 0 0 0 0 0 0 0 0 0 0 0 0 0 0 0 0 0 0 0 0 0
0 0 0 3 3 3 3 3 3 3 3 0 0 0 0 0 0 0 0 0 0 0 0 0 0 0 0 0 0 0 0 0 0 0 0 0 0 0 0 0 0 0 0
3 0 0 0 0 0 0 0 0 0 3 3 3 3 3 3 0 0 0 0 0 0 0 0 0 0 0 0 0 0 0 0 0 0 0 0 0 0 0 0 0 0 0
6 3 3 3 3 0 0 0 0 0 0 0 3 3 3 3 0 0 0 0 0 0 0 0 0 0 0 0 0 0 0 0 0 0 0 0 0 0 0 0 0 0 0
3 3 3 0 0 0 0 0 0 0 0 0 0 0 0 0 0 0 0 0 0 0 0 0 0 0 0 0 0 0 0 0 0 0 0 0 0 0 0 0 0 0 0
0 0 0 0 0 0 0 0 0 0 0 0 0 0 0 0 0 0 0 0 0 0 0 0 0 0 0 0 0 0 0 0 0 0 0 0 0 0 0 0 0 0 0

GEFSMA_con_cape1000_138.txt.gz
Probability
23 19 23 19 10 10 6 3 3 3 6 6 6 3 3 3 6 19 42 61 77 81 74 71 65 68 71 77 77 74 61 55 58 68 55 48 52 35 32 29 26 26 26
16 10 13 16 13 10 6 3 3 3 3 3 0 3 3 3 0 13 29 52 84 87 77 74 61 55 61 68 65 74 68 61 68 68 61 65 58 45 42 32 26 26 19
10 13 13 10 13 6 3 3 3 3 3 3 0 3 6 3 0 10 19 35 55 84 90 84 81 71 55 55 65 55 68 74 71 74 77 71 65 48 45 29 16 16 23
3 6 6 6 6 6 6 0 0 6 3 3 3 3 6 3 3 3 16 23 39 52 77 81 87 84 74 52 58 55 68 77 81 74 68 61 55 45 42 39 32 23 19
16 6 6 6 3 6 6 3 3 0 3 0 3 0 0 0 3 3 10 6 19 35 42 61 84 87 71 58 58 65 61 68 84 77 71 58 52 48 39 42 26 19 19
23 3 3 3 3 3 6 0 0 3 3 3 3 3 0 0 0 0 3 6 6 16 26 29 55 68 77 68 68 65 61 61 68 71 65 61 55 55 39 29 13 13 13
10 10 10 3 3 3 3 3 3 3 3 3 3 0 0 0 0 0 0 3 3 10 10 16 26 32 39 48 58 77 58 65 68 68 55 58 48 52 42 23 13 13 10
13 10 3 6 3 3 3 3 0 3 0 0 0 0 0 0 0 0 0 0 0 6 6 3 13 10 10 19 13 32 68 71 61 58 61 61 58 52 45 35 19 6 6
10 10 6 6 3 3 3 3 0 0 3 0 0 0 0 0 0 0 0 0 0 0 0 6 6 3 6 6 10 10 29 48 58 45 48 55 48 29 32 42 23 13 3
6 6 6 6 3 3 3 3 3 3 3 0 0 0 0 0 0 0 0 0 0 0 3 0 3 3 3 10 3 3 3 19 52 52 55 39 35 32 29 23 23 19 13
3 6 6 6 3 3 3 3 3 3 0 0 0 0 0 0 0 0 0 0 0 0 0 0 3 3 0 3 6 3 6 6 19 23 32 39 26 26 23 19 16 16 19
3 3 3 3 3 3 3 3 3 3 0 0 0 0 0 0 0 0 0 0 0 0 0 0 0 0 0 3 6 6 6 6 3 3 6 10 13 19 16 16 10 10 6
3 0 0 0 0 0 0 3 3 3 3 0 0 0 0 0 0 0 0 0 0 0 0 0 0 0 0 6 6 6 6 6 0 0 0 0 0 0 3 3 6 6 3
0 0 0 0 0 0 0 0 0 0 0 3 0 0 0 0 0 0 0 0 0 0 0 0 0 0 3 3 3 0 3 0 0 0 0 0 0 0 0 0 0 0 0
0 0 0 0 0 0 0 0 0 0 0 0 0 0 0 0 0 0 0 0 0 0 0 0 0 0 0 0 0 3 3 0 0 0 0 0 0 0 0 0 0 0 0
0 0 0 0 0 0 0 0 0 0 0 0 0 0 0 0 0 0 0 0 0 0 0 0 0 0 0 0 0 3 0 0 0 0 0 0 0 0 0 0 0 0 0
0 0 0 0 0 0 0 0 0 0 0 0 0 0 0 0 0 0 0 0 0 0 0 0 0 0 0 0 0 0 0 0 0 0 0 0 0 0 0 0 0 0 0
0 0 0 0 0 0 0 0 0 0 0 0 0 0 0 0 0 0 0 0 0 0 0 0 0 0 0 0 0 0 0 0 0 0 0 0 0 0 0 0 0 0 0
0 0 0 3 3 3 0 0 0 0 0 0 0 0 0 0 0 0 0 0 0 0 0 0 0 0 0 0 0 0 0 0 0 0 0 0 0 0 0 0 0 0 0
3 3 3 3 3 6 3 0 0 0 0 0 0 0 0 0 0 0 0 0 0 0 0 0 0 0 0 0 0 0 0 0 0 0 0 0 0 0 0 0 0 0 0
0 0 0 3 3 0 0 3 0 0 0 0 0 0 0 0 0 0 0 0 0 0 0 0 0 0 0 0 0 0 0 0 0 0 0 0 0 0 0 0 0 0 0
0 0 0 0 0 0 0 0 0 0 0 0 3 3 0 0 0 0 0 0 0 0 0 0 0 0 0 0 0 0 0 0 0 0 0 0 0 0 0 0 0 0 0
3 0 0 0 0 0 0 0 0 0 0 0 0 0 3 3 0 0 0 0 0 0 0 0 0 0 0 0 0 0 0 0 0 0 0 0 0 0 0 0 0 0 0
3 3 3 3 3 0 0 0 0 0 0 0 0 0 0 3 3 0 0 0 0 0 0 0 0 0 0 0 0 0 0 0 0 0 0 0 0 0 0 0 0 0 0
0 0 0 0 0 0 0 0 0 0 0 0 0 0 0 0 0 0 0 0 0 0 0 0 0 0 0 0 0 0 0 0 0 0 0 0 0 0 0 0 0 0 0
0 0 0 0 0 0 0 0 0 0 0 0 0 0 0 0 0 0 0 0 0 0 0 0 0 0 0 0 0 0 0 0 0 0 0 0 0 0 0 0 0 0 0